OPS 4682 DEB, 38434

Orbit data source: Space-Track

OPS 4682 DEB, 38434 is space debris in LEO originally from a launch on Sat, 03 Apr 1965 UTC launched from the Air Force Western Test Range (AFWTR). Debris objects in space refer to the collection of defunct objects orbiting the Earth. Examples of debris include non-operational satellites, rocket bodies, and fragments generated from explosions, collisions, or faulty payload assembly.

Loading next visibility...
Identifier
38434, 1965-027EP
Orbit
LEO
Country
Flag of USUS
Related business
Manufacturer
Unknown
Mission
Spacecraft
Bus & Motor
Unknown
Mass
Unknown
Launch date (UTC)
1965-04-03 (61 years ago)
Launch vehicle
Unknown
Launch site
Air Force Western Test Range (AFWTR)
Object type
Payload
Rocket body
Debris
Shape & HBR
Unknown shape, 0.1 m
Radar Cross Section
Medium (>0.1 m² and <1 m²)

Expand to show TLE details & history
Last TLE update: 2 days ago

TLE from 2 days ago
0 OPS 4682 DEB
1 38434U 65027EP  26235.83053319  .00000803  00000-0  27383-2 0  9998
2 38434  90.2470   7.4546 0029508  27.7806 332.4883 12.97430819671285
Epoch: 2026-08-23T19:55Z
TLE epoch observation values (Epoch: 2026-08-23T19:55:58.067Z)
Latitude
-0.00005°
Longitude
96.3417°
Altitude
1,255.038 km
Speed
7.237 km/s
True Right ascension
00h 29m 49s
True Declination
0° 00' 00"
Sunlit
Object was in full shadow at epoch
Visualization orbit readout
Latitude
Unknown
Longitude
Unknown
Altitude
Unknown
Speed
Unknown
Apparent Right ascension
Unknown
Apparent Declination
Unknown
Sunlit
N/A
Visualization observer readout
Local Sidereal Time
19:09:01
Azimuth
Unknown
Elevation
Unknown
Doppler factor
Unknown
Orbital elements
Apogee altitude
1,291.866 km
Perigee altitude
1,246.734 km
Semi-major axis
7,647.437 km
Eccentricity
0.00295
Inclination
90.247°
RAAN
7.4546°
Arg. of periapsis
27.7806°
True anomaly
332.33159°
Mean anomaly
332.4883°
Eccentric anomaly
332.41°
Mean motion
3.24541 °/min
Orbital period
110.93 mins
BSTAR
0.0027383
Loading maneuver chart data...
Computing Atmospheric mass density...
Loading historical data...
Loading historical data...
Loading historical data...
Loading historical data...
Loading historical data...
Loading historical data...
Loading historical data...

Documentation

Showing up to 5 results
|